When you browse on this site, cookies collect data to enhance your experience and personalize the content and advertising you see.
Visit our Privacy Policy to learn more. By continuing to use the site, you agree to this use of cookies and data.
  • Em Portugal
  • Lista de países
  • Para 7 dias
  • Temperatura da água
  • Mapas de satélite
  • Mapa do tempo
  • Widgets de tempo
  • user-avatar
    Iniciar Sessão

    Previsão horária em Cherneyki

    Hoje, 20 Abril, Sábado

    Tempo Temperatura Precipitação Vento Pressão Humidade
    00:00 +7°C° 0 mm 1 m/s 760 mmHg 53%
    01:00 +7°C° 0 mm 1 m/s 760 mmHg 55%
    02:00 +6°C° 0 mm 2 m/s 760 mmHg 57%
    03:00 +5°C° 0 mm 2 m/s 759 mmHg 59%
    04:00 +5°C° 0 mm 2 m/s 759 mmHg 62%
    05:00 +5°C° 0 mm 2 m/s 759 mmHg 64%
    06:00 +7°C° 0 mm 2 m/s 759 mmHg 60%
    07:00 +8°C° 0 mm 2 m/s 759 mmHg 56%
    08:00 +10°C° 0 mm 2 m/s 758 mmHg 53%
    09:00 +13°C° 0 mm 2 m/s 758 mmHg 47%
    10:00 +13°C° 0 mm 3 m/s 758 mmHg 42%
    11:00 +16°C° 0 mm 3 m/s 758 mmHg 36%
    12:00 +16°C° 0 mm 3 m/s 757 mmHg 35%
    13:00 +17°C° 0 mm 2 m/s 757 mmHg 33%
    14:00 +17°C° 0 mm 2 m/s 757 mmHg 32%
    15:00 +17°C° 0 mm 2 m/s 756 mmHg 34%
    16:00 +16°C° 0 mm 2 m/s 756 mmHg 36%
    17:00 +16°C° 0 mm 1 m/s 756 mmHg 38%
    18:00 +15°C° 0 mm 1 m/s 756 mmHg 42%
    19:00 +13°C° 0 mm 2 m/s 756 mmHg 46%
    20:00 +12°C° 0 mm 2 m/s 756 mmHg 50%
    21:00 +11°C° 0 mm 1 m/s 756 mmHg 54%
    22:00 +11°C° 0 mm 1 m/s 756 mmHg 58%
    23:00 +10°C° 0 mm 1 m/s 755 mmHg 61%

    Amanhã, 21 Abril, Domingo

    Tempo Temperatura Precipitação Vento Pressão Humidade
    00:00 +10°C° 0.1 mm 1 m/s 755 mmHg 64%
    01:00 +9°C° 0.1 mm 2 m/s 755 mmHg 66%
    02:00 +9°C° 0.1 mm 2 m/s 755 mmHg 68%
    03:00 +8°C° 0.3 mm 2 m/s 755 mmHg 74%
    04:00 +8°C° 0.3 mm 2 m/s 755 mmHg 80%
    05:00 +7°C° 0.3 mm 2 m/s 755 mmHg 86%
    06:00 +8°C° 0.2 mm 2 m/s 755 mmHg 82%
    07:00 +9°C° 0.2 mm 3 m/s 755 mmHg 78%
    08:00 +10°C° 0.2 mm 3 m/s 755 mmHg 73%
    09:00 +12°C° 0.1 mm 4 m/s 755 mmHg 64%
    10:00 +13°C° 0.1 mm 5 m/s 755 mmHg 54%
    11:00 +15°C° 0.1 mm 6 m/s 755 mmHg 45%
    12:00 +15°C° 0 mm 6 m/s 755 mmHg 43%
    13:00 +15°C° 0 mm 6 m/s 755 mmHg 41%
    14:00 +16°C° 0 mm 6 m/s 755 mmHg 39%
    15:00 +15°C° 0 mm 6 m/s 755 mmHg 42%
    16:00 +14°C° 0 mm 5 m/s 755 mmHg 44%
    17:00 +14°C° 0 mm 5 m/s 755 mmHg 47%
    18:00 +13°C° 0 mm 5 m/s 755 mmHg 48%
    19:00 +12°C° 0 mm 5 m/s 756 mmHg 49%
    20:00 +11°C° 0 mm 4 m/s 756 mmHg 50%
    21:00 +10°C° 0 mm 4 m/s 757 mmHg 53%
    22:00 +8°C° 0 mm 4 m/s 757 mmHg 55%
    23:00 +8°C° 0 mm 4 m/s 757 mmHg 57%

    Depois de amanhã, 22 Abril, Segunda-feira

    Tempo Temperatura Precipitação Vento Pressão Humidade
    00:00 +8°C° 0 mm 3 m/s 758 mmHg 58%
    01:00 +7°C° 0 mm 3 m/s 758 mmHg 60%
    02:00 +7°C° 0 mm 3 m/s 758 mmHg 61%
    03:00 +7°C° 0 mm 3 m/s 758 mmHg 63%
    04:00 +5°C° 0 mm 3 m/s 759 mmHg 65%
    05:00 +6°C° 0 mm 2 m/s 759 mmHg 68%
    06:00 +8°C° 0 mm 3 m/s 759 mmHg 61%
    07:00 +9°C° 0 mm 3 m/s 760 mmHg 55%
    08:00 +11°C° 0 mm 3 m/s 760 mmHg 49%
    09:00 +12°C° 0 mm 3 m/s 760 mmHg 44%
    10:00 +13°C° 0 mm 4 m/s 760 mmHg 39%
    11:00 +14°C° 0 mm 4 m/s 760 mmHg 35%
    12:00 +14°C° 0 mm 4 m/s 760 mmHg 35%
    13:00 +15°C° 0 mm 4 m/s 760 mmHg 35%
    14:00 +15°C° 0 mm 4 m/s 760 mmHg 34%
    15:00 +14°C° 0 mm 3 m/s 760 mmHg 36%
    16:00 +14°C° 0 mm 3 m/s 760 mmHg 37%
    17:00 +14°C° 0 mm 3 m/s 760 mmHg 39%
    18:00 +13°C° 0 mm 3 m/s 760 mmHg 41%
    19:00 +13°C° 0 mm 2 m/s 760 mmHg 43%
    20:00 +12°C° 0 mm 2 m/s 761 mmHg 45%
    21:00 +12°C° 0 mm 2 m/s 761 mmHg 46%
    22:00 +10°C° 0 mm 2 m/s 761 mmHg 46%
    23:00 +10°C° 0 mm 2 m/s 761 mmHg 47%

    23 Abril, Terça-feira

    Tempo Temperatura Precipitação Vento Pressão Humidade
    00:00 +10°C° 0 mm 2 m/s 761 mmHg 48%
    01:00 +10°C° 0 mm 2 m/s 762 mmHg 50%
    02:00 +9°C° 0 mm 2 m/s 762 mmHg 51%
    03:00 +9°C° 0 mm 2 m/s 762 mmHg 54%
    04:00 +8°C° 0 mm 2 m/s 762 mmHg 57%
    05:00 +7°C° 0 mm 2 m/s 762 mmHg 60%
    06:00 +9°C° 0 mm 2 m/s 762 mmHg 56%
    07:00 +10°C° 0 mm 2 m/s 762 mmHg 53%
    08:00 +13°C° 0 mm 2 m/s 762 mmHg 49%
    09:00 +13°C° 0 mm 3 m/s 762 mmHg 43%
    10:00 +14°C° 0 mm 3 m/s 762 mmHg 38%
    11:00 +17°C° 0 mm 3 m/s 762 mmHg 32%
    12:00 +17°C° 0 mm 3 m/s 762 mmHg 33%
    13:00 +17°C° 0 mm 4 m/s 762 mmHg 33%
    14:00 +17°C° 0 mm 4 m/s 761 mmHg 34%
    15:00 +17°C° 0 mm 4 m/s 761 mmHg 35%
    16:00 +17°C° 0 mm 4 m/s 761 mmHg 36%
    17:00 +17°C° 0 mm 4 m/s 761 mmHg 38%
    18:00 +14°C° 0 mm 3 m/s 761 mmHg 44%
    19:00 +12°C° 0 mm 3 m/s 761 mmHg 50%
    20:00 +12°C° 0 mm 2 m/s 761 mmHg 55%
    21:00 +10°C° 0 mm 2 m/s 761 mmHg 58%
    22:00 +9°C° 0 mm 2 m/s 761 mmHg 61%
    23:00 +8°C° 0 mm 2 m/s 761 mmHg 64%

    24 Abril, Quarta-feira

    Tempo Temperatura Precipitação Vento Pressão Humidade
    00:00 +8°C° 0 mm 2 m/s 762 mmHg 65%
    01:00 +8°C° 0 mm 2 m/s 762 mmHg 67%
    02:00 +7°C° 0 mm 2 m/s 762 mmHg 68%
    03:00 +7°C° 0 mm 2 m/s 762 mmHg 69%
    04:00 +7°C° 0 mm 2 m/s 762 mmHg 70%
    05:00 +6°C° 0 mm 2 m/s 762 mmHg 71%
    06:00 +8°C° 0 mm 3 m/s 762 mmHg 65%
    07:00 +10°C° 0 mm 3 m/s 762 mmHg 59%
    08:00 +12°C° 0 mm 3 m/s 762 mmHg 53%
    09:00 +14°C° 0 mm 4 m/s 762 mmHg 48%
    10:00 +15°C° 0 mm 5 m/s 762 mmHg 44%
    11:00 +16°C° 0 mm 5 m/s 762 mmHg 39%
    12:00 +17°C° 0 mm 5 m/s 761 mmHg 38%
    13:00 +17°C° 0 mm 5 m/s 761 mmHg 38%
    14:00 +19°C° 0 mm 5 m/s 760 mmHg 37%
    15:00 +17°C° 0 mm 5 m/s 760 mmHg 38%
    16:00 +17°C° 0 mm 5 m/s 760 mmHg 39%
    17:00 +17°C° 0 mm 5 m/s 760 mmHg 40%
    18:00 +15°C° 0 mm 4 m/s 760 mmHg 47%
    19:00 +13°C° 0 mm 4 m/s 760 mmHg 53%
    20:00 +12°C° 0 mm 3 m/s 760 mmHg 59%
    21:00 +11°C° 0 mm 3 m/s 760 mmHg 60%
    22:00 +11°C° 0 mm 3 m/s 760 mmHg 62%
    23:00 +10°C° 0 mm 3 m/s 760 mmHg 63%

    25 Abril, Quinta-feira

    Tempo Temperatura Precipitação Vento Pressão Humidade
    00:00 +10°C° 0 mm 3 m/s 760 mmHg 64%
    01:00 +9°C° 0 mm 3 m/s 760 mmHg 64%
    02:00 +9°C° 0 mm 3 m/s 760 mmHg 65%
    03:00 +9°C° 0 mm 3 m/s 760 mmHg 66%
    04:00 +8°C° 0 mm 3 m/s 760 mmHg 68%
    05:00 +8°C° 0 mm 3 m/s 760 mmHg 69%
    06:00 +10°C° 0 mm 4 m/s 760 mmHg 63%
    07:00 +12°C° 0 mm 4 m/s 760 mmHg 58%
    08:00 +14°C° 0 mm 5 m/s 760 mmHg 53%
    09:00 +15°C° 0 mm 5 m/s 760 mmHg 48%
    10:00 +16°C° 0 mm 5 m/s 759 mmHg 44%
    11:00 +19°C° 0 mm 6 m/s 759 mmHg 39%
    12:00 +20°C° 0 mm 6 m/s 759 mmHg 38%
    13:00 +20°C° 0 mm 6 m/s 758 mmHg 37%
    14:00 +21°C° 0 mm 5 m/s 758 mmHg 35%
    15:00 +21°C° 0 mm 5 m/s 758 mmHg 36%
    16:00 +20°C° 0 mm 5 m/s 757 mmHg 38%
    17:00 +20°C° 0 mm 4 m/s 757 mmHg 39%
    18:00 +18°C° 0 mm 4 m/s 757 mmHg 45%
    19:00 +16°C° 0 mm 3 m/s 757 mmHg 51%
    20:00 +14°C° 0 mm 3 m/s 757 mmHg 57%
    21:00 +13°C° 0 mm 3 m/s 757 mmHg 59%
    22:00 +12°C° 0 mm 3 m/s 757 mmHg 62%
    23:00 +12°C° 0 mm 3 m/s 757 mmHg 64%
    Mostrar mais